Skip Page Navigation
NASA JPL Caltech
NASA Logo - Jet Propulsion Laboratory + View the NASA Portal
+ Near-Earth Object (NEO) Program
Search JPL
JPL Home Earth Solar System Stars & Galaxies Technology
JPL Solar System Dynamics
BODIES ORBITS EPHEMERIDES TOOLS PHYSICAL DATA DISCOVERY FAQ SITE MAP
JPL Small-Body Database Browser
Search: [ help ]  
331876 (2004 CL)
Classification: Apollo [NEO, PHA]          SPK-ID: 2331876
Ephemeris | Orbit Diagram | Orbital Elements | Physical Parameters | Discovery Circumstances | Close-Approach Data ]

[ hide orbit diagram ]
Orbit Diagram
Note: Make sure you have Java enabled on your browser to see the applet. This applet is provided as a 3D orbit visualization tool. The applet was implemented using 2-body methods, and hence should not be used for determining accurate long-term trajectories (over several years or decades) or planetary encounter circumstances. For accurate long-term ephemerides, please instead use our Horizons system.
Orbit Viewer

Additional Notes: the orbits shown in the applet are color coded. The planets are white lines, and the asteroid/comet is a blue line. The bright white line indicates the portion of the orbit that is above the ecliptic plane, and the darker portion is below the ecliptic plane. Likewise for the asteroid/comet orbit, the light blue indicates the portion above the ecliptic plane, and the dark blue the portion below the ecliptic plane.

Orbit Viewer applet originally written and kindly provided by Osamu Ajiki (AstroArts), and further modified by Ron Baalke (JPL).


Orbital Elements at Epoch 2456400.5 (2013-Apr-18.0) TDB
Reference: JPL 26 (heliocentric ecliptic J2000)
 Element Value Uncertainty (1-sigma)   Units 
e .5361430514197656 2.1424e-07  
a 1.284273731903011 1.7048e-08 AU
q .5957192944222807 2.8278e-07 AU
i 13.30696276530208 2.247e-05 deg
node 109.4920130246932 5.4067e-05 deg
peri 274.5459176275313 2.7655e-05 deg
M 159.804104261459 2.5154e-05 deg
tp 2456164.522685262403
(2012-Aug-25.02268526)
3.4094e-05 JED
period 531.5998215323887
1.46
1.0585e-05
2.898e-08
d
yr
n .6772011302830475 1.3484e-08 deg/d
Q 1.972828169383741 2.6189e-08 AU
  Orbit Determination Parameters
   # obs. used (total)      132  
   data-arc span      3064 days (8.39 yr)  
   first obs. used      2004-02-07  
   last obs. used      2012-06-28  
   planetary ephem.      DE405  
   SB-pert. ephem.      SB405-CPV-2  
   condition code      0  
   fit RMS      .60354  
   data source      ORB  
   producer      Otto Matic  
   solution date      2013-Apr-29 15:41:45  

Additional Information
 Earth MOID = .02323 AU 
 T_jup = 4.868 
[ show covariance matrix ]

Ephemeris | Orbit Diagram | Orbital Elements | Physical Parameters | Discovery Circumstances | Close-Approach Data ]

Physical Parameter Table
Parameter Symbol Value Units Sigma Reference Notes
absolute magnitude H 20.393 mag .49081 26 autocmod 2.5c

331876 (2004 CL)          Discovered 2004-Feb-07 by LONEOS at Anderson Mesa (699)
Reference: 20120703/Numbers.arcLast Updated: 2012-07-09

[ show close-approach data ]
Ephemeris | Orbit Diagram | Orbital Elements | Physical Parameters | Discovery Circumstances | Close-Approach Data ]
ABOUT SSD CREDITS/AWARDS PRIVACY/COPYRIGHT GLOSSARY LINKS
FirstGov 2013-May-19 18:51 UT
(server date/time)  
NASA Home Page
Site Manager:   Donald K. Yeomans
Webmaster  Alan B. Chamberlin